CZ-6A DEB, 60845

Orbit data source: Space-Track

CZ-6A DEB, 60845 is space debris in LEO originally from a launch on Tue, 06 Aug 2024 UTC launched from the Taiyaun Space Center, China (TSC). Debris objects in space refer to the collection of defunct objects orbiting the Earth. Examples of debris include non-operational satellites, rocket bodies, and fragments generated from explosions, collisions, or faulty payload assembly.

Loading next visibility...
Identifier
60845, 2024-140HY
Orbit
LEO
Country
Flag of CNCN / PRC
Related business
Manufacturer
SAST
Mission
Spacecraft
Bus & Motor
Unknown
Mass
Unknown
Launch date (UTC)
2024-08-06 (2 years ago)
Launch vehicle
Unknown
Launch site
Taiyaun Space Center, China (TSC)
Object type
Payload
Rocket body
Debris
Shape & HBR
Unknown shape, 0.2 m
Radar Cross Section
Medium (>0.1 m² and <1 m²)

Expand to show TLE details & history
Last TLE update: 14 hours ago

TLE from 14 hours ago
0 CZ-6A DEB
1 60845U 24140HY  26171.26263148  .00000488  00000-0  96661-4 0  9995
2 60845  89.0382 272.7440 0121669 237.7860 121.1508 14.56079643 98403
Epoch: 2026-06-20T06:18Z
TLE epoch observation values (Epoch: 2026-06-20T06:18:11.359Z)
Latitude
-0.00012°
Longitude
-90.2831°
Altitude
754.322 km
Speed
7.453 km/s
True Right ascension
18h 10m 58s
True Declination
0° 00' 00"
Sunlit
Object was in full shadow at epoch
Visualization orbit readout
Latitude
Unknown
Longitude
Unknown
Altitude
Unknown
Speed
Unknown
Apparent Right ascension
Unknown
Apparent Declination
Unknown
Sunlit
N/A
Visualization observer readout
Local Sidereal Time
07:20:33
Azimuth
Unknown
Elevation
Unknown
Doppler factor
Unknown
Orbital elements
Apogee altitude
788.912 km
Perigee altitude
616.607 km
Semi-major axis
7,080.897 km
Eccentricity
0.01217
Inclination
89.0382°
RAAN
272.744°
Arg. of periapsis
237.786°
True anomaly
122.33459°
Mean anomaly
121.1508°
Eccentric anomaly
121.74363°
Mean motion
3.64259 °/min
Orbital period
98.83 mins
BSTAR
0.000096661
Loading maneuver chart data...
Computing Atmospheric mass density...
Loading historical data...
Loading historical data...
Loading historical data...
Loading historical data...
Loading historical data...
Loading historical data...
Loading historical data...

Documentation

Showing up to 5 results
|